User: anonymous   Login
Location: Unspecified
(0.0000°N, 0.0000°E)
Time: 20:29:05
(UTC+00:00)
Language:

USA 142 - Orbit

View from above orbital plane
View from above orbital plane
View from above satellite
View from above satellite

Ground track
Ground track

The orbit data is extracted from the following two-line orbital elements,

1 25669U 99017A   20175.07459852 0.00000000  00000-0  00000-0 0    02
2 25669  29.1779  97.4977 7107905  13.2182 358.7659  2.32916611    08
Epoch (UTC): 23 June 2020 01:47:25
Eccentricity: 0.7107905
inclination: 29.1779°
perigee height: 574 km
apogee height: 34749 km
right ascension of ascending node: 97.4977°
argument of perigee: 13.2182°
revolutions per day: 2.32916611
mean anomaly at epoch: 358.7659°
orbit number at epoch: 0

The dashed part of the orbit path shows where the satellite is in the earth's shadow,  

DLR